Location: Albany
(35.0000°S, 118.0000°E)
Time: 23:47:39
(UTC-04:00)

Daily predictions for brighter satellites

Satellite Brightness Start Highest point End
(mag) Time Altitude Azimuth Time Altitude Azimuth Time Altitude Azimuth
CZ-3 R/B 4.4 13:48:58 10° W 14:56:02 64° NNW 15:09:38 10° NE
USA 215 4.2 15:42:23 10° ESE 15:48:31 40° NE 15:49:16 39° NE
Cosmos 1867 4.4 16:06:42 47° E 16:06:42 47° E 16:11:17 10° NE
ATLAS CENTAUR R/B 4.3 16:13:49 11° SSE 16:13:49 11° SSE 16:14:07 10° SSE
ISS -0.5 16:20:31 12° SE 16:20:31 12° SE 16:21:07 10° ESE
Radarsat Rocket 4.1 16:16:23 10° NNE 16:22:17 78° ESE 16:28:48 10° SSW
Cosmos 909 Rocket 3.9 16:23:49 71° N 16:24:34 85° ENE 16:31:07 10° SSE
Cosmos 372 Rocket 4.0 16:33:34 76° SSE 16:33:34 76° SSE 16:38:27 10° SSE
IRAS Rocket 4.2 16:27:47 10° NNE 16:33:26 86° ESE 16:39:09 10° SSW
IDEFIX/ARIANE 42P 3.6 16:30:11 10° NE 16:35:11 45° ESE 16:40:16 10° S
SEDSat Delta rocket 3.9 16:38:46 40° NE 16:38:46 40° NE 16:41:52 10° E
Geosat 4.2 16:33:17 10° NNE 16:37:23 58° N 16:37:23 58° N
Tiangong 1 3.9 16:41:47 17° E 16:41:47 17° E 16:42:36 10° ESE
CENTAUR R/B 3.9 16:41:41 27° SSW 16:41:41 27° SSW 16:46:35 10° S
BREEZE-M DEB (TANK) 3.3 16:40:34 41° NE 16:40:36 41° NE 16:45:59 10° ESE
PAYLOAD A 4.4 16:36:10 10° NNE 16:41:10 60° ESE 16:46:02 10° S
Cosmos 1943 Rocket 3.2 16:49:39 30° SSW 16:49:39 30° SSW 16:53:12 10° S
CZ-2C R/B 3.3 16:43:36 10° NE 16:47:58 44° ESE 16:52:22 10° S
Milstar 3 3.8 16:44:18 36° NW 16:48:05 59° N 17:01:56 10° E
Cosmos 1933 Rocket 3.4 16:49:58 85° WNW 16:50:01 86° W 16:54:29 10° S
Cosmos 1892 3.2 16:47:26 15° N 16:50:30 62° E 16:54:26 10° SSE
Cosmos 1125 Rocket 4.0 16:55:59 43° SW 16:55:59 43° SW 17:00:22 10° S
Cosmos 1656 Rocket 3.5 16:54:13 33° NNW 16:56:47 75° WSW 17:02:21 10° SSE
Cosmos 2369 Rocket 4.2 17:01:16 13° SSW 17:01:16 13° SSW 17:02:20 10° SSW
SL-8 R/B 3.7 16:59:16 59° WSW 16:59:54 67° SW 17:04:46 10° SE
Abrixas rocket 3.8 17:00:15 27° NNE 17:01:01 31° NE 17:04:01 10° ESE
Cosmos 1862 Rocket 3.4 16:56:34 10° S 17:01:02 87° W 17:05:28 10° N
ASTEX 1 3.3 17:00:13 10° N 17:05:07 88° E 17:10:09 10° S
CZ-4 R/B 3.7 17:03:36 10° NE 17:07:11 27° ESE 17:10:48 10° SSE
Cosmos 2242 Rocket 3.8 17:09:18 46° W 17:09:21 46° W 17:13:44 10° NNW
BREEZE-M DEB (TANK) 3.4 17:09:36 39° NW 17:10:59 90° WNW 17:20:31 10° SE
OAO 3 Rocket 3.1 17:09:37 46° W 17:11:04 83° N 17:15:57 10° ENE
DELTA 2 R/B (1) 3.7 17:09:52 38° WSW 17:11:53 62° SSW 17:17:26 10° ESE
Meteor 2-3 Rocket 3.7 17:06:25 10° N 17:12:13 88° W 17:18:07 10° S
Cosmos 1346 Rocket 2.6 17:11:28 32° SSW 17:13:08 63° W 17:16:59 10° N
CSL-04 Rocket 3.9 17:09:02 10° NNE 17:14:23 70° ESE 17:19:45 10° S
Meteor 2-10 Rocket 3.8 17:11:02 10° SSW 17:16:05 46° W 17:21:18 10° NNW
Cosmos 2219 4.2 17:11:34 10° S 17:17:01 46° ESE 17:22:25 10° NE
Cosmos 1464 Rocket 4.1 17:18:16 10° SSW 17:24:10 47° W 17:30:03 10° NNW
Cosmos 1408 3.9 17:23:33 10° NNE 17:26:59 42° E 17:30:30 10° SSE
ATLAS CENTAUR R/B 3.4 17:26:05 23° WNW 17:29:20 61° SW 17:42:53 10° SE
Cosmos 1340 4.4 17:26:09 10° S 17:29:42 35° ESE 17:33:13 10° NE
USA 215 3.5 17:25:11 10° SE 17:31:31 51° SW 17:36:40 16° WNW
Gbstr 26 Del rocket 4.4 17:29:38 23° WSW 17:33:14 45° NW 17:40:04 10° NNE
Cosmos 2034 Rocket 4.1 17:28:00 10° SSW 17:34:16 56° W 17:40:26 10° NNW
Cosmos 1606 4.2 17:32:20 10° S 17:36:04 40° E 17:39:42 10° NNE
Cosmos 2346 Rocket 4.5 17:31:03 10° N 17:37:18 89° W 17:43:33 10° S
Cosmos 494 Rocket 4.2 17:36:32 10° SSW 17:41:51 77° ESE 17:47:07 10° NNE
Cosmos 1703 Rocket 3.5 17:38:04 10° S 17:42:39 82° W 17:47:09 10° N
SJ-12 4.1 17:41:12 10° N 17:45:09 48° W 17:49:11 10° SSW
Meteor 1-26 Rocket 4.5 17:40:08 10° SSW 17:45:26 44° W 17:50:40 10° NNW
Landsat 4 4.2 17:42:48 10° S 17:46:18 36° WSW 17:49:44 10° NW
Cosmos 2251 Rocket 3.9 17:44:14 10° SSW 17:49:39 71° ESE 17:54:58 10° NNE
ERS-2 2.8 17:47:01 10° NNW 17:50:24 34° W 17:53:52 10° SSW
Tsikada Rocket 4.4 17:46:34 10° NNW 17:52:39 44° W 17:58:49 10° S
MTI 4.0 17:51:38 10° S 17:54:51 49° WSW 17:58:01 10° NNW
IRS-1A Rocket 4.4 17:49:06 10° NNE 17:55:00 87° WNW 18:01:01 10° SSW
Cosmos 1869 Rocket 3.6 17:50:54 10° NNW 17:55:14 56° W 17:59:35 10° S
ISS -3.8 17:53:11 14° SW 17:55:58 71° NW 17:59:16 10° NE
USA 267 4.4 17:55:11 10° E 18:01:09 38° SE 18:07:08 10° SSW
Meteor 1-10 Rocket 4.4 17:55:39 10° S 18:01:27 86° E 18:07:18 10° N
MSX 4.2 17:56:13 10° N 18:01:39 43° W 18:07:10 10° SSW
SKYMED 2 4.2 17:57:33 10° SSE 18:01:56 62° E 18:06:14 10° N
USA 116 4.4 17:58:37 10° S 18:03:33 60° WSW 18:08:46 10° NNW
CZ-4C R/B 4.2 17:59:32 10° S 18:04:03 23° SE 18:08:10 10° E
BREEZE-M DEB 4.2 18:05:30 12° WNW 18:07:23 31° SW 18:09:24 10° SSE
AQUARIUS 4.4 18:04:32 10° N 18:08:55 49° W 18:13:21 10° SSW
ALOS 4.5 18:06:01 10° NE 18:09:59 28° ESE 18:14:00 10° SSE
SMAP 3.4 18:07:28 10° N 18:11:57 46° W 18:16:30 10° SSW
YAOGAN 1 2.6 18:10:02 10° N 18:14:21 70° WNW 18:18:45 10° SSW
IDEFIX/ARIANE 42P 3.9 18:11:17 10° NW 18:14:58 19° W 18:18:39 10° SW
Tiangong 1 1.9 18:12:53 10° W 18:15:25 29° SSW 18:17:59 10° SE
BREEZE M DEB (TANK) 3.8 18:13:08 10° SW 18:16:51 72° SE 18:30:20 10° NE
Ariane Rocket 3.9 18:13:57 10° NNW 18:18:16 28° W 18:22:40 10° SW
USA 229 DEB 3.9 18:10:58 10° NW 18:18:20 76° WSW 18:25:39 10° SSE
USA 229 3.9 18:11:04 10° NW 18:18:26 77° WSW 18:25:45 10° SSE
Cosmos 2227 Rocket 3.0 18:15:09 10° SSW 18:20:46 55° ESE 18:26:18 10° NE
Meteor 2-6 Rocket 4.2 18:16:32 10° SSW 18:22:02 67° W 18:27:37 10° N
